www.pogodaiklimat.ru

Погода и климат >> Архив погоды >> Беларусь >> Житковичи


АРХИВ ПОГОДЫ в Житковичах

Время (UTC), дата Ветер
(напр.,м/с)
 
Видим.   Явления Облачность Т
(С)
Тd
(С)
f
(%)
Тe
(С)
Тes
(С)
Комфортность P
(гПа)
Po
(гПа)
Тmin
(С)
Tmax
(С)
R
(мм)
R24
(мм)
S
(см)
03 13.02 штиль 0 4000 м дымка 9/9 600 м
[Sc]
-2.3 -2.9 96 -4 -4 по сезону 1017.3 1000.0
06 13.02 В 1 4000 м слабый снег 9/9 300 м
[Sc]
-1.6 -2.4 94 -4 -4 по сезону 1018.2 1000.9 -3.2 0.2 15
09 13.02 В 2 10 км {снег} 10/8 600 м
[Sc As op]
-2.2 -5.4 79 -6 -6 по сезону 1019.1 1001.8
12 13.02 В 1 10 км {снег} 9/5 600 м
[Sc Ac trans]
-0.6 -4.7 74 -2 -2 по сезону 1018.9 1001.7
15 13.02 штиль 0 10 км 9/9 600 м
[Sc]
-1.9 -5.7 75 -3 -3 по сезону 1019.0 1001.7
18 13.02 СВ 1 10 км 8/8 600 м
[Sc]
-3.1 -5.9 81 -5 -5 по сезону 1019.3 1002.0 -0.4 0.0
21 13.02 В 2 10 км 9/9 600 м
[Sc]
-3.6 -6.8 78 -8 -8 по сезону 1020.2 1002.7
00 14.02 В 1 10 км 9/9 600 м
[Sc]
-5.6 -8.6 79 -8 -8 по сезону 1021.7 1003.1
03 14.02 штиль 0 10 км 9/9 600 м
[Sc]
-7.0 -8.7 88 -8 -8 по сезону 1020.7 1003.1
06 14.02 СВ 1 4000 м дымка 10/6 600 м
[Sc Ac As]
-6.6 -7.8 91 -9 -9 по сезону 1021.6 1004.0 -7.0 15
09 14.02 В 2 4000 м слабый снег 10/8 600 м
[Sc Ac As]
-5.5 -7.3 87 -10 -10 прохладно 1022.6 1005.0
12 14.02 СВ 2 10 км {снег} 10/8 600 м
[Sc Ac und]
-4.5 -7.6 79 -9 -8 прохладно 1022.8 1005.3
15 14.02 В 1 10 км 10/6 600 м
[Sc Ac und]
-5.0 -8.6 76 -7 -7 по сезону 1023.8 1006.3
18 14.02 СВ 1 10 км 9/9 600 м
[Sc]
-6.4 -9.6 78 -9 -9 по сезону 1025.6 1007.9 -4.1 0.0
21 14.02 СВ 1 10 км 6/0
[Ci fib]
-10.7 -12.7 85 -13 -13 прохладно 1026.5 1008.5
00 15.02 В 1 4000 м слабый снег 9/9 300 м
[Sc]
-8.7 -9.8 92 -11 -11 по сезону 1027.1 1009.2
03 15.02 В 2 4000 м слабый снег 9/9 300 м
[Sc]
-7.4 -8.3 93 -12 -12 прохладно 1027.3 1009.4
06 15.02 В 1 4000 м дымка {снег} 10/0
[Ac As]
-8.0 -8.6 95 -10 -10 по сезону 1028.1 1010.2 -10.7 0.0 15
09 15.02 В 2 10 км {снег} 10/0
[As op]
-5.8 -7.6 87 -10 -9 прохладно 1028.8 1011.1
12 15.02 В 2 10 км {снег} 10/5 600 м
[Sc As op]
-3.6 -7.6 74 -8 -7 прохладно 1028.7 1011.1
15 15.02 В 1 10 км 9/9 600 м
[Sc]
-3.4 -7.0 76 -6 -6 по сезону 1028.9 1011.3
18 15.02 штиль 0 10 км 10/0
[Ac As]
-3.8 -6.4 82 -5 -5 по сезону 1028.9 1011.3 -3.2 0.2
21 15.02 штиль 0 10 км 10/0
[Ac As]
-4.6 -6.2 89 -6 -6 по сезону 1028.8 1011.2
00 16.02 штиль 0 4000 м слабый ливневой снег 10/8 600 м
[Cb cap Ac As]
-4.2 -5.1 93 -5 -5 по сезону 1028.4 1010.8
03 16.02 штиль 0 4000 м в посл. час ливневой снег 10/8 600 м
[Cb cap Ac und]
-3.8 -4.6 94 -5 -5 по сезону 1027.7 1010.1
06 16.02 ЮВ 1 4000 м слабый ливневой снег 10/8 600 м
[Cb cap Ac und]
-3.1 -4.1 93 -5 -5 по сезону 1027.0 1009.5 -4.6 0.2 15
09 16.02 Ю 1 4000 м слабая крупа {ливн. осадки} 10/8 600 м
[Cb cap Ac As]
-1.8 -2.9 92 -4 -4 по сезону 1026.3 1008.8
12 16.02 ЮВ 2 4000 м слабый ливневой снег 10/8 600 м
[Cb cap Ac As]
-0.6 -1.5 94 -4 -4 по сезону 1025.7 1008.4
15 16.02 ЮВ 2 4000 м слабый ливневой снег 10/8 600 м
[Cb cap Ac As]
-0.4 -1.0 96 -4 -4 по сезону 1024.4 1007.1
18 16.02 Ю 1 4000 м дымка {ливн. осадки} 9/9 600 м
[Sc]
-0.3 -0.9 96 -3 -3 по сезону 1024.1 1006.8 0.0 2
21 16.02 Ю 1 4000 м дымка 9/9 600 м
[Sc]
-0.6 -1.2 96 -3 -3 по сезону 1023.6 1006.3
00 17.02 ЮЗ 1 4000 м дымка 9/9 600 м
[Sc]
-0.6 -1.5 94 -3 -3 по сезону 1023.6 1006.3
03 17.02 ЮЗ 2 4000 м дымка 9/9 600 м
[Sc]
-0.3 -1.2 94 -4 -4 по сезону 1023.4 1006.1
06 17.02 ЮЗ 2 4000 м дымка 9/9 600 м
[Sc]
-0.2 -1.1 94 -4 -4 по сезону 1023.4 1006.1 -0.7 17
09 17.02 ЮЗ 3 10 км 9/6 600 м
[Sc Ac trans]
+0.7 -1.3 86 -4 -3 по сезону 1022.8 1005.7
12 17.02 ЮЗ 3 10 км 8/8 600 м
[Sc]
+3.2 -1.6 71 -1 0 по сезону 1021.5 1004.5
15 17.02 ЮЗ 3
{10}
4000 м слабый ливневой снег 10/8 600 м
[Cb cap Ac und]
+0.9 -1.1 86 -4 -4 по сезону 1021.2 1004.1
18 17.02 ЮЗ 2 4000 м слабый ливневой снег 10/8 600 м
[Cb cap Ac und]
+0.4 -0.6 93 -3 -3 по сезону 1021.1 1003.9 +3.4 0.7
21 17.02 ЮЗ 2 4000 м дымка {ливн. осадки} 9/9 600 м
[Sc]
+0.3 -0.5 94 -3 -3 по сезону 1020.9 1003.6
00 18.02 4000 м дымка {ливн. осадки} н/о +0.4 -0.7 92 -2 -2 тепло 1020.7 1003.5
03 18.02 ЮЗ 1 4000 м дымка 8/8 600 м
[Sc]
0.0 -0.8 94 -2 -2 тепло 1020.8 1003.5
06 18.02 З 1 4000 м дымка 10/8 600 м
[Sc Ac und]
-0.6 -2.1 90 -3 -3 тепло 1020.8 1003.5 -0.6 0.0 13
09 18.02 З 2 4000 м слабый ливневой снег 10/8 600 м
[Cb cap Ac und]
-1.0 -4.2 79 -5 -4 по сезону 1021.2 1003.9
12 18.02 З 4 10 км {ливн. осадки} 9/6 600 м
[Sc Ac trans]
-1.1 -6.5 67 -6 -6 по сезону 1021.9 1004.6
15 18.02 З 2 10 км 10/8 600 м
[Cb cap Ac und]
-1.8 -6.4 71 -5 -5 по сезону 1022.5 1005.1
18 18.02 З 2 4000 м слабый ливневой снег 10/8 600 м
[Cb cap Ac und]
-2.8 -5.1 84 -7 -7 по сезону 1023.9 1006.5 -0.4 0.3
21 18.02 З 3 10 км {ливн. осадки} 9/9 600 м
[Sc]
-3.1 -5.5 83 -8 -8 по сезону 1024.4 1007.0
00 19.02 З 2 10 км {ливн. осадки} 9/9 600 м
[Sc]
-3.2 -5.6 83 -7 -7 по сезону 1024.9 1007.5
03 19.02 ЮЗ 1 10 км 9/9 600 м
[Sc]
-4.2 -7.6 77 -6 -6 по сезону 1024.6 1007.1
06 19.02 З 2 4000 м слабый снег 10/4 600 м
[Sc As op]
-4.2 -5.8 89 -8 -8 по сезону 1024.6 1007.1 -4.2 0.4 13
09 19.02 З 3 10 км в посл. час снег 9/6 600 м
[Sc Ac trans]
-2.2 -4.7 83 -7 -7 по сезону 1024.8 1007.4
12 19.02 З 3 10 км {снег} 9/5 600 м
[Sc Ac trans Ci fib]
+0.3 -4.9 68 -4 -3 по сезону 1024.1 1006.8
15 19.02 З 3 10 км 9/9 600 м
[Sc]
-0.1 -4.4 73 -5 -5 по сезону 1024.4 1007.1
18 19.02 З 1 4000 м слабый ливневой снег 10/8 600 м
[Cb cap Ac und]
-1.0 -2.6 89 -3 -3 по сезону 1024.5 1007.2 +0.5 0.4
21 19.02 штиль 0 4000 м дымка {ливн. осадки} 10/8 600 м
[Sc diur, vesp Ac und]
-1.2 -2.2 93 -2 -2 по сезону 1024.6 1007.3

 

Местоположение метеостанции Житковичи (Гомельская область, Беларусь): широта 52.22 долгота 27.87 высота над уровнем моря 137 м.

В архиве по умолчанию представлена погода в Житковичах за последнюю неделю. Архивные данные за месяц целиком и за предыдущие месяцы, начиная с января 2011 года, Вы можете получить, выбрав интересующий диапазон дат из раскрывающегося списка и нажав кнопку "Ввод!".

Внимание! Время в таблицах - всемирное. Для получения местного времени необходимо прибавить поправку, которая в Житковичах равна 3 ч.

Смотрите также архив погоды в соседних городах и на ближайших метеорологических станциях:

Погода в Полесской (Брестская область, Беларусь) (80 км)
Погода в Октябре (Гомельская область, Беларусь) (82 км)
Погода в Мозыре (Гомельская область, Беларусь) (92 км)
Погода в Слуцке (Минская область, Беларусь) (93 км)
Погода в Олевске (Житомирская область, Украина) (112 км)
Погода в Ганцевичах (Брестская область, Беларусь) (113 км)
Погода в Овруче (Житомирская область, Украина) (118 км)
Погода в Пинске (Брестская область, Беларусь) (124 км)
Погода в Василевичах (Гомельская область, Беларусь) (134 км)
Погода в Сарнах (Ровенская область, Украина) (135 км)

Пояснения к столбцам:

Ветер - указаны скорость ветра в м/с - средняя за 10 мин, порывы в срок и между сроками (в фигурных скобках) и направление, откуда дует ветер: С - северный, СВ - северо-восточный, В - восточный, ЮВ - юго-восточный, Ю - южный, ЮЗ - юго-западный, З - западный, СЗ - северо-западный.
Видимость - горизонтальная дальность видимости в метрах или километрах. При видимости от 1 до 10 км при отсутствии осадков обычно наблюдается дымка, при ухудшении видимости до 1 км и менее - туман. В сухую погоду видимость может ухудшаться дымом, пылью или мглою.
Явления - указаны атмосферные явления, наблюдавшиеся в срок или в последний час перед сроком; фигурными скобками обозначены явления, наблюдавшиеся между сроками (за 1-3 часа до срока); квадратными скобками обозначены град или гололедные отложения с указанием их диаметра в мм.
Облачность - указаны через наклонную черту общая и нижняя облачность в баллах и высота нижней границы облаков в метрах; квадратными скобками обозначены формы облаков: Ci - перистые, Cs - перисто-слоистые, Cc - перисто-кучевые, Ac - высококучевые, As - высокослоистые, Sc - слоисто-кучевые, Ns - слоисто-дождевые, Cu - кучевые, Cb - кучево-дождевые. Подробнее классификацию облаков см. в Атласе облаков (PDF).
T - Температура воздуха - температура, измеренная на высоте 2 м над землей.
Td - Температура точки росы - температура, при понижении до которой содержащийся в воздухе водяной пар достигнет насыщения.
f - Относительная влажность воздуха - влажноcть воздуха, измеренная на высоте 2 м над землей.
Te - Эффективная температура - температура, которую ощущает одетый по сезону человек в тени. Характеристика душности погоды. При расчете учитывается влияние влажности воздуха и скорости ветра на теплоощущения человека.
Tes - Эффективная температура на солнце - температура, которую ощущает человек, с поправкой на солнечный нагрев. Характеристика знойности погоды. Зависит от высоты солнца над горизонтом, облачности и скорости ветра. Ночью, в пасмурную погоду, а также при ветре 12 м/с и более поправка равна нулю.
P - Атмосферное давление - приведенное к уровню моря атмосферное давление.
Po - Атмосферное давление - измеренное на уровне метеостанции атмосферное давление.
Tmin - Минимальная температура - минимум температуры воздуха на высоте 2 м над землей.
Tmax - Максимальная температура - максимум температуры воздуха на высоте 2 м над землей.
R - Количество осадков - Количество выпавших осадков за период времени, мм. При наведении курсора мыши на число - период времени, за который выпало указанное количество осадков.
R24 - Количество осадков - Количество выпавших осадков за 24 часа, мм.
S - Снежный покров - Высота снежного покрова, см. При наведении курсора мыши на число - состояние снежного покрова и степень покрытия местности в баллах.